User: anonymous   Login
Location: Unspecified
(0.0000°N, 0.0000°E)
Time: 14:00:17
(UTC+00:00)
Language:

MOZHAYETS 4 - Orbit

View from above orbital plane
View from above orbital plane
View from above satellite
View from above satellite

Ground track
Ground track

The orbit data is extracted from the following two-line orbital elements,

1 27939U 03042A   18051.24060512  .00000108  00000-0  27863-4 0  9993
2 27939  97.9703 193.5285 0013617 154.4855 255.1915 14.66658591769674
Epoch (UTC): 20 February 2018 05:46:28
Eccentricity: 0.0013617
inclination: 97.9703°
perigee height: 662 km
apogee height: 681 km
right ascension of ascending node: 193.5285°
argument of perigee: 154.4855°
revolutions per day: 14.66658591
mean anomaly at epoch: 255.1915°
orbit number at epoch: 76967

The dashed part of the orbit path shows where the satellite is in the earth's shadow,  

DLR